Preview of NWS' New Version of Forecast
This preview is not operational and should not be used for support decisions.

Regional Weather Roundup (RWR)

Issued by National Weather Service (NWS)

                            
000
ASUS46 KSEW 210010
RWRWA 

WASHINGTON REGIONAL WEATHER ROUNDUP
NATIONAL WEATHER SERVICE SEATTLE WA
500 PM PDT SAT JUL 20 2019

NOTE:"FAIR" INDICATES FEW OR NO CLOUDS BELOW 12,000 FEET WITH NO 
SIGNIFICANT WEATHER AND/OR OBSTRUCTIONS TO VISIBILITY.

WAZ507-509-555>559-210100-
SEATTLE, TACOMA, EVERETT, AND VICINITY
  
CITY           SKY/WX    TMP DP  RH WIND       PRES   REMARKS
EVERETT        SUNNY     73  49  42 N7        30.06F                  
6HR MIN TEMP:  65; 6HR MAX TEMP:  74;                                

BOEING FIELD   SUNNY     78  45  30 NW9       30.02F                  
6HR MIN TEMP:  68; 6HR MAX TEMP:  79;                                

RENTON         SUNNY     79  50  36 NW12      30.02F                  
6HR MIN TEMP:  68; 6HR MAX TEMP:  80;                                

SEATAC AIRPORT MOSUNNY   79  47  32 N12       30.04F                  
6HR MIN TEMP:  69; 6HR MAX TEMP:  80;                                

JBLM-MCCHORD   SUNNY     79  51  37 N8        30.03F                  
6HR MIN TEMP:  69; 6HR MAX TEMP:  79;                                

PUYALLUP       FAIR      81  48  32 VRB5      30.04F                  
BREMERTON      SUNNY     78  48  34 NE9       30.04F                  
6HR MIN TEMP:  67; 6HR MAX TEMP:  79;                                

JBLM-FT LEWIS  SUNNY     80  53  38 NW7       30.02F                  
6HR MIN TEMP:  68; 6HR MAX TEMP:  80;                                

TACOMA NARROWS SUNNY     76  44  32 N10       30.03F                  
6HR MIN TEMP:  64; 6HR MAX TEMP:  76;                                

$$
 
WAZ001-503-506-510-514-515-210100-
NORTH INTERIOR
  
CITY           SKY/WX    TMP DP  RH WIND       PRES   REMARKS
BELLINGHAM     MOSUNNY   75  53  46 NW6       30.05F                  
6HR MIN TEMP:  68; 6HR MAX TEMP:  76;                                

FRIDAY HARBOR  SUNNY     74  48  39 N8        30.07F                  
6HR MIN TEMP:  67; 6HR MAX TEMP:  75;                                

EASTSOUND      SUNNY     68  54  60 NW5       30.06S                  
PORT ANGELES   SUNNY     72  46  39 N6        30.08F                  
6HR MIN TEMP:  65; 6HR MAX TEMP:  75;                                

EDIZ HOOK      FAIR      65  51  60 NE3       30.07F                  
6HR MIN TEMP:  61; 6HR MAX TEMP:  67;                                

PORT TOWNSEND  FAIR      73  46  38 VRB6      30.05F                  
NAS WHIDBEY    PTSUNNY   70  52  52 W9        30.10F                  
6HR MIN TEMP:  63; 6HR MAX TEMP:  72;                                

ARLINGTON      MOSUNNY   78  54  43 NW13      30.04F                  
BURLINGTON     SUNNY     77  54  44 W9        30.05F                  
$$
 
WAZ020-022-039-040-504-511-512-210100-
SOUTHWEST INTERIOR
  
CITY           SKY/WX    TMP DP  RH WIND       PRES   REMARKS
SHELTON        SUNNY     83  46  27 N8        29.99F                  
6HR MIN TEMP:  68; 6HR MAX TEMP:  83;                                

OLYMPIA        SUNNY     79  45  29 N10       30.02F                  
6HR MIN TEMP:  68; 6HR MAX TEMP:  80;                                

CHEHALIS       FAIR      81  48  32 NE7G14    30.01F                  
KELSO          SUNNY     84  51  31 NW9       29.98F                  
6HR MIN TEMP:  69; 6HR MAX TEMP:  84;                                

VANCOUVER      SUNNY     85  45  24 NW9       29.93F                  
6HR MIN TEMP:  68; 6HR MAX TEMP:  86;                                

SCAPPOOSE, OR  SUNNY     86  45  23 VRB7      29.94F                  
6HR MIN TEMP:  70; 6HR MAX TEMP:  87;                                

PORTLAND, OR   MOSUNNY   87  47  24 NW13      29.94F                  
6HR MIN TEMP:  68; 6HR MAX TEMP:  87;                                

$$
 
WAZ021-516-517-210100-
WASHINGTON COAST
  
CITY           SKY/WX    TMP DP  RH WIND       PRES   REMARKS
FORKS          SUNNY     71  51  49 NW10      30.06F                  
6HR MIN TEMP:  65; 6HR MAX TEMP:  73;                                

HOQUIAM        SUNNY     72  54  53 W12       30.04F                  
6HR MIN TEMP:  64; 6HR MAX TEMP:  72;                                

ASTORIA, OR    SUNNY     69  56  62 NW20      30.01F                  
6HR MIN TEMP:  68; 6HR MAX TEMP:  71;                                

$$
 
WAZ019-023-024-040-567>569-210100-
CASCADE MOUNTAINS AND COLUMBIA GORGE
  
CITY           SKY/WX    TMP DP  RH WIND       PRES   REMARKS
STAMPEDE PASS  SUNNY     73  39  29 CALM      30.13S                  
6HR MIN TEMP:  63; 6HR MAX TEMP:  73;                                

TROUTDALE, OR  SUNNY     87  50  27 W5        29.92F                  
6HR MIN TEMP:  68; 6HR MAX TEMP:  87;                                

HOOD RIVER, OR CLEAR     86  36  16 E5        29.98F                  
THE DALLES, OR SUNNY     88  34  14 E6        29.95F                  
6HR MIN TEMP:  72; 6HR MAX TEMP:  89;                                

$$

WAZ026-027-041>044-520-521-210100-
EAST SLOPES
  
CITY           SKY/WX    TMP DP  RH WIND       PRES   REMARKS
OMAK           PTSUNNY   83  39  21 CALM      30.04F                  
6HR MIN TEMP:  76; 6HR MAX TEMP:  85;                                

WENATCHEE      SUNNY     83  30  14 SW8       30.01F                  
6HR MIN TEMP:  70; 6HR MAX TEMP:  83;                                

ELLENSBURG     SUNNY     84  34  16 SE5       30.04F                  
6HR MIN TEMP:  72; 6HR MAX TEMP:  85;                                

YAKIMA         SUNNY     82  40  22 S7        30.02F                  
6HR MIN TEMP:  73; 6HR MAX TEMP:  84; 6HR PCP: TRACE;                

SUNNYSIDE ARPT CLEAR     82  43  25 W5        30.01S                  
6HR MIN TEMP:  72; 6HR MAX TEMP:  83;                                

YAKIMA TC      FAIR      82  35  18 NW5       30.01F                  
6HR MIN TEMP:  73; 6HR MAX TEMP:  83;                                

$$

WAZ028-034-035-210100-
COLUMBIA BASIN
  
CITY           SKY/WX    TMP DP  RH WIND       PRES   REMARKS
EPHRATA        SUNNY     82  33  17 SW6       30.03S                  
6HR MIN TEMP:  76; 6HR MAX TEMP:  84;                                

MOSES LAKE     SUNNY     86  36  16 W5        30.03F                  
6HR MIN TEMP:  77; 6HR MAX TEMP:  86;                                

PASCO          SUNNY     86  38  18 N9        30.00F                  
6HR MIN TEMP:  75; 6HR MAX TEMP:  87;                                

RICHLAND ARPT  CLEAR     86  33  15 NE5       30.00                   
6HR MIN TEMP:  77; 6HR MAX TEMP:  86;                                

HERMISTON, OR  SUNNY     87  33  14 NE12      29.98F                  
6HR MIN TEMP:  74; 6HR MAX TEMP:  88;                                

$$

WAZ036>038-210100-
NORTHEAST WASHINGTON
  
CITY           SKY/WX    TMP DP  RH WIND       PRES   REMARKS
SPOKANE GEIGER MOSUNNY   77  36  22 NE9G17    30.09S                  
6HR MIN TEMP:  69; 6HR MAX TEMP:  79;                                

SPOKANE FELTS  MOSUNNY   79  36  21 N7        30.08S                  
6HR MIN TEMP:  71; 6HR MAX TEMP:  80;                                

FAIRCHILD AFB  MOSUNNY   78  32  19 W7        30.09S                  
6HR MIN TEMP:  69; 6HR MAX TEMP:  78;                                

COEURDALENE,ID SUNNY     77  38  24 NW7       30.10S                  
6HR MIN TEMP:  69; 6HR MAX TEMP:  78; 6HR PCP: TRACE;                

DEER PARK      PTSUNNY   76  38  25 NW3       30.10S                  
6HR MIN TEMP:  69; 6HR MAX TEMP:  77;                                

$$

WAZ029>033-210100-
SOUTHEAST WASHINGTON
  
CITY           SKY/WX    TMP DP  RH WIND       PRES   REMARKS
PULLMAN        SUNNY     77  34  21 VRB7      30.10S                  
6HR MIN TEMP:  70; 6HR MAX TEMP:  78;                                

LEWISTON, ID   SUNNY     83  33  16 CALM      30.02F                  
6HR MIN TEMP:  71; 6HR MAX TEMP:  85;                                

WALLA WALLA    SUNNY     86  30  13 CALM      30.00F                  
6HR MIN TEMP:  71; 6HR MAX TEMP:  88;                                

PENDLETON, OR  SUNNY     84  33  16 E12G17    30.00F                  
6HR MIN TEMP:  74; 6HR MAX TEMP:  85;                                

$$